Wetbulb
72.54 72.47 71.88 69.89 69.56 70.34 69.52 68.91 68.27 67.52 67.18 65.47 64.85 64.31 63.69 62.63 61.54 60.50 60.35 59.60 58.35 56.81 57.15 55.50 54.80 56.09 53.88 53.61 53.33 52.89 51.15 49.21 44.63 45.61 48.19 47.48 49.46 50.27 48.50 47.88 50.27 48.16 49.32
71.86 71.48 70.11 68.71 69.49 69.22 68.35 68.37 67.55 66.26 65.78 64.05 63.73 61.88 60.72 60.66 60.80 60.37 58.26 57.63 55.89 55.20 54.88 54.03 52.39 53.16 51.00 49.33 48.61 48.57 47.05 46.05 44.63 42.60 43.70 46.11 46.99 47.92 44.84 46.30 46.62 47.70 47.51
70.76 68.78 68.06 68.42 69.21 68.20 67.60 66.60 66.25 64.59 63.28 62.31 61.56 60.39 59.50 59.49 58.60 58.44 57.09 55.93 55.63 54.35 53.09 51.19 49.83 47.98 46.20 45.73 45.93 44.92 45.12 44.69 44.39 42.76 42.64 44.72 45.41 44.94 43.47 43.44 43.32 44.56 47.31
68.06 67.91 67.66 68.09 67.07 66.08 65.80 64.52 63.05 62.15 62.18 60.96 60.52 59.54 58.74 58.10 57.48 57.04 56.33 55.57 54.56 53.33 51.35 49.23 46.95 46.38 44.45 44.18 43.69 43.30 43.84 43.43 42.45 41.41 40.76 42.08 42.30 42.70 42.17 39.87 39.93 42.41 43.22
67.34 66.71 65.90 65.38 64.71 63.85 61.80 61.78 62.13 61.58 60.64 59.72 58.67 57.78 56.12 54.47 55.37 56.10 55.54 54.69 53.80 53.06 51.94 48.19 45.12 44.12 44.68 45.13 43.96 43.13 43.91 42.25 41.25 39.45 39.02 39.78 40.27 39.39 38.17 39.68 38.83 40.05 41.48
63.80 63.47 63.48 63.02 61.75 61.33 61.39 61.21 60.28 59.12 58.53 57.36 56.40 53.41 51.42 50.24 47.39 51.38 54.44 53.42 52.36 50.60 49.19 47.46 45.02 41.25 41.13 44.20 46.90 46.86 47.13 41.65 40.66 38.77 38.74 38.00 38.66 39.43 39.94 39.48 38.56 37.63 37.28
61.61 61.65 61.29 60.89 60.09 60.10 59.49 58.23 57.19 55.98 54.97 53.29 52.20 51.26 49.16 47.15 44.34 46.84 50.53 50.37 47.97 47.16 46.07 44.63 42.42 39.98 37.82 39.15 42.31 46.98 47.11 44.83 42.95 41.02 39.67 39.58 39.77 40.61 40.50 39.16 38.47 38.78 38.98
59.47 59.64 59.37 58.45 57.77 57.30 56.14 55.03 53.99 53.48 52.31 51.49 50.62 49.46 46.37 43.23 42.62 43.08 47.50 45.40 42.62 41.70 41.62 41.86 38.99 37.34 36.19 37.25 41.67 41.87 42.52 42.62 42.65 43.74 42.30 43.10 42.87 41.98 40.93 40.36 39.92 40.77 41.49
56.72 56.71 56.60 56.21 54.92 53.92 52.87 52.53 52.40 51.22 50.28 49.53 48.81 47.39 44.01 41.54 41.15 41.32 46.87 46.04 43.33 41.06 38.43 37.79 38.86 37.31 36.45 37.04 40.24 39.16 39.89 40.42 43.90 45.08 45.30 43.84 42.19 41.92 42.76 41.65 38.94 38.68 37.66
53.68 54.21 55.05 55.60 54.53 53.30 52.59 51.52 50.94 49.99 48.59 48.68 47.30 46.00 44.54 41.92 39.29 39.87 44.14 46.77 45.55 42.55 40.06 37.15 36.67 35.87 35.62 35.86 37.69 38.61 36.95 37.80 38.89 42.97 43.12 43.26 43.01 43.11 44.03 42.34 40.93 38.52 38.80
52.55 52.51 52.22 52.97 52.33 51.81 50.85 50.87 49.79 48.06 46.88 45.90 44.93 44.89 44.31 42.59 39.68 38.94 40.68 44.41 45.90 42.73 41.55 39.17 39.76 36.38 35.70 36.02 36.46 39.26 36.86 37.48 42.26 41.18 41.05 40.97 40.78 40.56 41.32 41.97 41.78 41.77 38.22
50.09 50.00 50.43 50.01 50.65 50.50 49.44 48.22 47.70 46.05 43.74 42.54 41.35 40.94 41.15 41.06 40.69 38.57 38.64 39.56 43.38 40.18 39.77 40.65 41.24 37.02 36.18 36.73 36.72 36.64 36.79 40.99 40.98 40.10 39.57 38.76 38.67 38.56 40.45 40.89 41.93 43.64 42.37
48.19 47.77 48.54 48.72 48.81 49.30 47.66 46.58 45.27 44.48 43.43 42.17 39.94 38.45 38.57 39.80 39.14 39.18 38.68 39.28 39.60 42.42 42.01 40.38 38.92 38.44 38.04 40.08 38.68 39.35 40.16 40.50 39.64 38.51 38.15 38.18 39.01 39.18 40.77 40.04 41.73 41.96 41.75
46.04 46.44 46.65 46.50 46.82 47.24 47.46 47.09 45.70 44.65 43.36 41.99 40.76 40.34 41.55 42.71 42.19 43.10 41.28 40.98 40.10 41.46 42.31 42.69 42.14 41.21 41.83 41.99 42.14 42.11 40.69 40.46 39.58 38.53 38.36 39.22 39.14 38.36 38.87 39.75 39.32 39.46 39.00
46.60 45.71 44.48 41.65 39.32 37.13 38.13 41.10 38.97 39.58 43.94 44.48 44.80 44.08 40.16 36.18 34.75 35.72 38.93 40.00 39.61 39.25 37.16 44.14 42.63 41.71 40.52 40.35 40.52 41.08 40.31 39.37 38.79 38.90 38.32 37.53 36.82 37.19 37.91 39.43 39.28 38.19 37.06
43.37 43.28 42.18 40.09 38.93 38.21 36.54 35.02 35.78 36.09 35.90 35.64 35.81 36.46 35.31 35.43 35.22 35.37 35.46 35.55 36.61 36.34 42.13 40.95 39.79 39.67 38.94 38.92 38.75 38.81 39.06 38.68 38.53 38.38 37.79 37.24 35.94 36.33 36.86 38.55 38.42 36.87 36.31
43.37 41.71 40.41 40.72 40.26 38.73 37.89 35.32 33.04 34.53 35.48 34.80 34.45 34.85 35.06 34.54 34.68 35.07 35.83 36.28 37.74 40.04 40.85 39.97 39.30 39.02 38.76 38.86 38.71 38.15 37.58 37.80 38.59 38.02 37.24 36.44 36.17 36.44 36.98 37.01 36.61 36.10 36.27
40.68 40.32 41.27 40.92 40.90 40.30 39.33 38.31 37.66 35.39 33.80 34.27 35.33 35.39 34.40 34.57 34.80 35.26 35.90 35.75 41.72 40.99 40.24 39.28 38.68 38.87 38.72 38.34 38.44 37.86 37.87 37.05 36.82 36.92 36.65 35.56 36.26 36.10 36.05 36.02 35.67 34.82 35.70
41.21 41.17 41.35 40.99 40.52 40.26 40.81 40.22 39.33 37.99 35.69 35.07 35.60 36.27 35.15 34.56 35.12 35.90 36.58 42.66 40.80 39.93 39.94 39.21 39.38 39.24 38.80 38.64 38.32 38.14 37.60 35.52 35.10 35.32 35.61 34.74 35.90 36.01 35.79 36.29 35.08 34.76 34.65
42.99 40.45 41.75 42.62 43.25 43.49 42.39 41.38 39.66 37.98 37.34 38.41 39.73 39.59 39.96 38.15 41.79 41.89 42.39 41.73 40.69 40.05 40.03 39.44 39.47 39.19 38.65 38.27 37.82 37.39 35.92 34.33 33.58 33.83 33.88 33.98 35.05 36.19 35.72 35.72 34.46 35.39 34.54
43.30 43.67 42.01 45.25 44.31 43.28 43.30 42.54 42.59 42.36 42.14 41.82 40.14 36.80 31.40 42.95 41.44 41.23 40.80 40.53 40.28 39.96 39.94 39.73 39.07 38.64 38.57 38.08 37.13 36.33 34.11 32.68 32.12 32.48 32.43 32.69 34.57 35.34 36.54 35.61 34.60 35.67 34.95
45.13 45.40 46.17 45.73 45.78 45.29 45.17 44.87 43.63 42.20 41.23 40.61 40.72 39.23 32.62 42.80 41.76 41.32 41.06 41.01 40.94 40.94 40.63 39.93 39.04 38.62 38.47 37.41 35.91 34.44 32.30 30.32 30.58 31.72 30.73 31.70 34.48 35.90 36.25 34.35 34.04 34.90 34.58
46.61 46.00 45.86 45.79 45.10 42.16 44.07 43.48 42.28 41.22 40.75 40.99 41.46 41.73 41.92 41.73 41.38 41.26 41.17 41.56 41.49 41.05 40.91 40.11 39.03 38.39 38.79 37.31 35.69 34.16 30.70 28.97 29.74 30.90 29.64 31.64 33.82 34.83 35.44 33.16 33.43 33.73 33.64
46.87 45.79 44.97 44.70 45.24 44.79 44.31 43.76 43.25 40.65 42.70 42.36 42.38 42.17 41.96 41.75 41.38 41.92 41.72 41.85 41.87 41.49 41.33 40.32 39.50 38.76 38.72 36.19 34.64 33.82 31.19 29.33 30.60 29.78 30.21 31.50 32.93 35.23 33.92 32.74 33.43 33.74 33.65
45.44 45.82 45.43 45.01 44.95 44.00 43.47 43.14 43.23 43.37 42.86 42.54 42.27 42.07 42.03 42.14 41.77 42.01 42.46 42.37 42.19 41.28 41.21 40.48 39.59 39.46 38.48 34.93 33.37 31.77 29.42 29.52 30.03 29.24 30.24 31.84 34.61 35.44 33.02 32.63 33.62 33.20 33.33
46.08 46.23 45.81 45.09 44.48 44.07 43.58 43.40 43.28 43.07 42.35 42.63 42.70 42.75 42.59 41.80 41.98 42.33 42.16 41.76 41.70 41.32 41.15 40.83 39.87 39.77 37.55 34.56 31.87 29.22 29.34 29.45 29.22 29.26 28.80 33.61 34.85 34.03 32.33 32.37 33.34 32.71 33.13
MSLP
997.14 998.38 999.34 1000.98 1002.23 1003.59 1004.77 1005.99 1007.26 1008.68 1009.81 1011.13 1012.38 1013.13 1013.71 1014.23 1014.95 1015.65 1016.16 1016.73 1017.29 1017.60 1017.65 1018.09 1018.37 1018.34 1018.62 1018.53 1018.40 1018.26 1018.29 1018.48 1018.32 1017.43 1016.93 1016.37 1015.67 1015.13 1015.10 1014.66 1013.83 1013.53 1012.84
996.44 998.33 999.90 1001.36 1002.86 1004.02 1004.93 1005.99 1007.58 1008.85 1010.13 1011.20 1012.38 1013.31 1014.20 1014.74 1015.32 1015.71 1016.18 1017.00 1017.61 1017.89 1018.35 1018.64 1018.99 1019.31 1019.39 1019.48 1019.35 1019.27 1019.30 1019.15 1018.84 1018.02 1017.27 1016.63 1016.04 1015.82 1015.53 1015.11 1014.62 1013.71 1013.17
996.01 997.50 998.91 1000.91 1002.25 1004.04 1005.30 1006.35 1007.72 1008.91 1010.46 1011.51 1012.61 1013.49 1014.34 1014.96 1015.67 1016.16 1016.82 1017.54 1017.93 1018.40 1018.87 1019.43 1019.93 1020.22 1020.46 1020.45 1020.20 1020.14 1019.91 1019.58 1019.04 1018.52 1017.92 1017.15 1016.68 1016.51 1015.98 1015.49 1015.13 1014.19 1013.23
997.08 996.56 997.19 1000.21 1001.95 1003.75 1005.17 1006.21 1007.80 1009.45 1010.62 1011.73 1012.96 1013.65 1014.69 1015.39 1015.95 1016.78 1017.36 1017.92 1018.30 1018.79 1019.60 1020.18 1020.71 1020.92 1021.06 1020.96 1020.69 1020.62 1020.33 1019.96 1019.47 1018.99 1018.51 1017.84 1017.54 1017.16 1016.53 1015.97 1014.93 1014.22 1013.32
997.30 994.21 999.01 1001.58 1002.30 1003.73 1005.45 1006.24 1007.87 1009.88 1011.18 1012.14 1013.28 1014.36 1015.37 1016.08 1016.56 1017.23 1017.76 1018.22 1018.70 1019.25 1019.89 1020.56 1021.22 1021.36 1021.35 1021.29 1021.10 1020.72 1020.35 1020.19 1019.93 1019.76 1019.25 1018.69 1018.06 1017.49 1016.63 1016.35 1015.66 1014.45 1013.57
998.84 999.11 1000.91 1002.62 1002.91 1003.88 1005.45 1006.40 1008.46 1010.40 1011.73 1012.79 1013.90 1015.33 1016.42 1017.31 1017.33 1017.60 1018.15 1018.80 1019.39 1019.88 1020.42 1021.13 1021.34 1022.05 1022.14 1021.73 1021.03 1020.66 1020.24 1020.37 1020.29 1020.06 1019.60 1019.12 1018.21 1017.68 1016.93 1016.35 1015.72 1014.68 1013.13
999.58 999.67 1002.39 1003.61 1003.71 1004.97 1006.23 1007.44 1009.56 1011.36 1012.48 1013.73 1015.14 1016.43 1017.41 1018.20 1018.19 1018.48 1019.03 1019.71 1020.36 1020.94 1021.48 1021.83 1022.02 1022.67 1022.88 1022.38 1021.49 1020.79 1020.44 1020.45 1020.43 1020.12 1019.62 1019.00 1018.31 1017.51 1017.01 1016.40 1015.56 1014.99 1013.89
1000.99 1002.30 1003.31 1003.42 1004.86 1006.53 1007.29 1009.03 1010.89 1012.14 1013.38 1014.76 1016.18 1017.31 1018.25 1019.07 1018.99 1019.41 1020.01 1020.66 1021.43 1022.09 1022.55 1022.79 1023.21 1023.42 1023.22 1022.86 1022.08 1021.61 1021.09 1020.82 1020.40 1019.70 1019.12 1018.64 1018.09 1017.49 1017.25 1016.65 1015.64 1014.67 1013.70
1001.92 1002.67 1003.37 1004.85 1005.80 1007.18 1008.77 1010.29 1011.60 1012.67 1014.39 1015.82 1017.03 1018.14 1019.03 1019.70 1019.90 1020.27 1020.53 1021.13 1021.88 1022.51 1023.03 1023.58 1023.55 1023.76 1023.52 1023.19 1022.69 1022.19 1021.49 1020.91 1020.18 1019.35 1018.60 1018.14 1017.99 1017.61 1017.02 1016.38 1015.48 1014.45 1013.30
1003.67 1004.12 1004.85 1005.91 1007.36 1008.54 1009.71 1010.93 1012.44 1013.85 1015.28 1016.63 1017.88 1019.01 1019.76 1020.33 1020.58 1020.72 1020.69 1021.09 1021.58 1022.31 1023.12 1023.65 1023.90 1023.94 1023.69 1023.45 1023.07 1022.43 1021.93 1021.10 1020.10 1019.20 1018.69 1018.40 1018.07 1017.69 1017.08 1016.58 1015.84 1014.85 1013.97
1004.85 1005.48 1006.79 1008.24 1008.94 1009.68 1010.61 1011.91 1013.40 1014.89 1016.40 1017.55 1018.62 1019.78 1020.49 1021.01 1021.47 1021.39 1021.13 1021.48 1021.35 1021.99 1022.75 1023.46 1023.65 1023.79 1023.66 1023.35 1023.03 1022.54 1022.26 1021.48 1020.48 1019.82 1019.33 1018.89 1018.52 1018.29 1017.49 1016.83 1015.99 1015.17 1014.34
1006.59 1007.84 1008.86 1009.38 1009.88 1010.77 1011.65 1013.40 1014.98 1016.21 1017.31 1018.52 1019.47 1020.51 1021.26 1021.74 1021.78 1021.99 1022.09 1022.25 1022.33 1022.91 1023.31 1023.58 1023.31 1023.45 1023.63 1023.17 1022.91 1022.35 1022.04 1021.44 1020.97 1020.32 1019.92 1019.41 1019.01 1018.77 1018.08 1017.28 1016.08 1015.21 1014.48
1007.74 1008.94 1009.78 1010.45 1011.06 1012.29 1013.30 1014.74 1016.22 1017.13 1017.94 1018.96 1019.96 1020.84 1021.59 1022.12 1022.55 1022.70 1022.84 1023.06 1023.39 1023.19 1023.29 1023.31 1023.41 1023.30 1023.10 1022.69 1022.57 1022.25 1021.85 1021.60 1021.21 1020.82 1020.51 1020.07 1019.79 1019.57 1018.52 1017.53 1016.20 1015.50 1014.57
1008.84 1009.99 1010.86 1011.42 1012.77 1013.91 1014.64 1015.83 1016.76 1017.66 1018.38 1019.24 1020.07 1020.90 1021.80 1022.54 1023.19 1023.45 1023.51 1023.51 1023.61 1023.69 1023.56 1023.28 1022.94 1022.82 1022.56 1022.47 1022.41 1022.18 1022.34 1022.28 1021.78 1021.60 1021.28 1020.81 1020.50 1019.96 1018.84 1017.76 1016.55 1015.72 1014.74
1010.12 1011.18 1012.21 1013.60 1014.64 1015.75 1017.08 1017.65 1018.30 1018.85 1018.65 1019.22 1020.15 1020.96 1022.28 1023.50 1024.50 1024.37 1024.20 1024.50 1024.50 1024.22 1023.98 1023.50 1023.26 1023.05 1023.03 1022.89 1022.81 1022.55 1022.72 1022.67 1022.30 1022.17 1021.91 1021.52 1021.20 1020.60 1019.40 1018.11 1017.11 1016.38 1015.36
1011.34 1012.66 1013.83 1014.83 1015.96 1016.84 1018.05 1019.26 1020.16 1019.85 1020.21 1020.99 1021.61 1022.56 1023.82 1024.54 1024.88 1024.93 1025.12 1024.95 1024.61 1024.33 1024.05 1023.92 1023.82 1023.69 1023.67 1023.61 1023.37 1023.28 1023.18 1023.18 1022.97 1022.78 1022.58 1022.43 1022.08 1021.23 1019.99 1018.54 1017.71 1017.00 1015.82
1012.71 1013.96 1014.92 1015.69 1016.96 1017.81 1018.80 1019.47 1020.55 1022.26 1022.47 1023.08 1023.62 1024.20 1024.69 1025.08 1025.20 1025.20 1025.08 1024.87 1024.24 1024.13 1024.38 1024.17 1024.09 1024.33 1024.36 1024.20 1023.96 1023.90 1023.84 1023.91 1023.70 1023.45 1023.32 1023.22 1022.71 1021.80 1020.58 1019.24 1018.30 1017.39 1016.20
1014.34 1015.28 1015.56 1016.51 1017.49 1018.16 1019.05 1020.07 1021.22 1022.26 1023.33 1024.44 1024.92 1025.09 1025.53 1025.51 1025.45 1025.51 1025.55 1025.42 1024.91 1024.61 1024.58 1024.59 1024.70 1024.73 1024.67 1024.64 1024.52 1024.54 1024.43 1024.52 1024.37 1024.23 1024.02 1023.84 1023.22 1022.37 1021.16 1020.00 1019.09 1018.04 1016.89
1014.99 1016.18 1016.87 1017.34 1017.97 1018.58 1019.47 1020.66 1021.79 1022.79 1023.71 1024.44 1025.05 1025.39 1025.65 1025.69 1025.72 1025.67 1025.60 1025.28 1025.10 1025.03 1024.97 1025.01 1025.13 1025.18 1025.09 1025.08 1025.12 1025.04 1025.10 1025.35 1025.33 1025.07 1024.69 1024.35 1023.70 1022.81 1021.74 1020.71 1019.79 1018.51 1017.64
1015.79 1016.55 1017.09 1017.56 1018.13 1018.83 1019.70 1020.70 1022.02 1022.93 1023.48 1023.93 1024.44 1024.96 1025.33 1025.56 1025.52 1025.55 1025.48 1025.42 1025.45 1025.53 1025.50 1025.44 1025.55 1025.64 1025.65 1025.74 1025.74 1025.69 1025.90 1026.15 1026.11 1025.82 1025.39 1024.92 1024.23 1023.32 1022.14 1021.26 1020.34 1018.94 1018.20
1016.28 1016.73 1017.21 1017.50 1018.31 1019.14 1019.97 1020.48 1021.45 1022.25 1022.64 1023.22 1024.14 1024.89 1025.17 1024.82 1025.27 1025.51 1025.56 1025.77 1025.80 1025.90 1026.04 1025.91 1026.00 1026.23 1026.28 1026.33 1026.49 1026.59 1026.83 1027.05 1027.01 1026.59 1026.09 1025.42 1024.57 1023.63 1022.44 1021.87 1020.93 1019.71 1018.89
1016.39 1016.80 1017.00 1017.64 1018.41 1019.20 1019.83 1020.45 1021.53 1022.14 1022.81 1023.78 1024.38 1024.74 1024.99 1025.08 1025.51 1025.73 1025.99 1026.10 1026.15 1026.31 1026.43 1026.44 1026.56 1026.85 1026.98 1027.05 1027.35 1027.46 1027.77 1027.98 1027.76 1027.18 1026.75 1025.87 1024.83 1023.78 1022.74 1022.32 1021.37 1020.43 1019.57
1016.62 1017.02 1017.54 1018.23 1019.13 1019.99 1020.44 1021.23 1022.00 1022.82 1023.61 1024.12 1024.33 1024.43 1024.86 1025.33 1025.65 1026.01 1026.33 1026.51 1026.56 1026.77 1026.94 1027.20 1027.23 1027.44 1027.63 1027.88 1028.12 1028.29 1028.75 1028.86 1028.53 1027.79 1027.38 1026.21 1025.16 1024.08 1023.20 1022.79 1021.88 1021.12 1020.31
1017.21 1017.89 1018.59 1019.22 1019.65 1020.42 1021.13 1021.63 1022.14 1022.95 1023.16 1023.60 1024.21 1024.77 1025.23 1025.71 1025.99 1026.26 1026.49 1026.71 1026.86 1027.14 1027.34 1027.51 1027.74 1027.80 1027.91 1028.42 1028.75 1028.88 1029.37 1029.34 1028.76 1028.32 1027.59 1026.49 1025.45 1024.23 1023.79 1023.21 1022.37 1021.84 1021.12
1018.24 1018.53 1019.07 1019.76 1020.32 1021.03 1021.67 1022.09 1022.63 1023.00 1023.48 1024.02 1024.60 1025.16 1025.58 1025.96 1026.22 1026.45 1026.63 1026.79 1027.01 1027.41 1027.50 1027.70 1028.00 1027.99 1028.17 1028.89 1029.25 1029.47 1029.64 1029.40 1028.89 1028.50 1027.62 1026.61 1025.39 1024.59 1024.35 1023.68 1022.80 1022.38 1021.81
1018.81 1019.21 1019.84 1020.53 1021.07 1021.54 1022.05 1022.42 1022.92 1023.42 1023.78 1024.41 1024.92 1025.30 1025.77 1026.13 1026.51 1026.61 1026.80 1027.27 1027.20 1027.36 1027.56 1027.75 1027.95 1028.08 1028.54 1029.19 1029.61 1029.77 1029.63 1029.34 1028.92 1028.37 1027.69 1026.39 1025.33 1025.00 1024.76 1024.05 1023.27 1022.93 1022.29
Wind_Speed
25 24 22 21 22 20 18 18 17 17 15 14 13 12 11 11 10 9 7 8 8 6 6 6 7 7 6 6 7 6 6 6 7 8 6 9 7 6 8 9 11 12 10
26 22 21 20 20 19 19 18 18 17 15 15 13 13 12 11 9 6 10 9 8 7 8 8 10 8 10 10 8 8 6 6 6 9 8 7 6 8 12 11 11 11 11
20 25 26 24 22 21 20 20 18 18 16 16 14 13 13 11 10 10 11 8 8 9 10 10 10 9 9 7 7 6 5 7 6 7 8 8 6 9 11 11 11 12 8
13 25 25 23 23 22 22 21 20 18 17 16 13 14 12 11 11 10 11 7 9 10 10 9 8 7 6 6 6 5 5 6 7 7 8 8 8 11 8 11 12 10 11
21 21 17 21 23 24 23 22 21 18 16 16 15 14 12 10 7 10 9 9 8 7 8 10 7 11 14 11 5 6 6 5 6 8 8 9 9 11 11 10 11 11 12
19 25 18 20 23 24 23 22 20 19 17 16 15 15 13 9 14 12 11 9 9 9 7 8 7 15 13 16 15 18 10 3 5 4 6 8 9 9 9 9 10 12 14
18 23 22 21 24 23 23 23 20 18 17 16 16 15 13 11 19 16 16 10 10 10 9 9 10 9 12 10 15 12 10 4 6 5 7 8 9 10 8 10 11 11 11
19 21 21 23 24 23 23 22 20 17 17 15 15 14 12 10 17 15 16 12 11 10 9 9 8 8 9 11 9 9 9 7 8 8 6 8 6 8 7 7 10 11 10
18 19 21 21 24 23 23 21 18 18 16 15 14 14 12 11 15 12 5 10 10 9 8 8 7 5 10 15 7 8 7 7 10 18 11 10 11 12 10 7 11 12 12
18 19 20 20 21 22 21 20 18 17 17 13 14 13 14 11 14 12 6 7 8 8 7 6 7 4 10 10 7 6 8 10 11 8 8 7 10 10 15 10 11 12 11
19 20 20 19 20 20 21 18 17 17 16 15 14 12 11 10 10 15 18 8 4 6 6 5 2 3 9 11 9 5 6 10 9 8 8 8 9 11 10 11 13 9 12
21 21 19 20 16 16 21 19 17 16 16 14 13 10 8 7 10 14 16 14 12 8 5 1 2 4 8 10 8 10 13 9 7 8 8 9 9 11 11 12 14 7 12
22 20 19 20 18 18 19 18 14 13 12 11 10 9 8 7 7 11 11 10 8 4 2 0 6 10 12 6 9 9 8 8 8 9 9 10 10 11 11 13 12 11 13
22 21 19 19 19 16 12 11 10 10 10 10 10 9 8 6 5 2 3 3 0 1 3 5 4 4 5 4 7 7 8 8 8 9 9 9 10 12 11 11 11 12 10
20 18 17 14 16 15 13 9 9 7 7 8 8 8 9 7 4 5 9 5 4 4 7 3 4 5 6 6 6 7 7 9 9 9 10 11 12 11 11 11 11 11 11
19 15 14 13 13 13 14 16 25 27 28 26 22 14 9 10 7 9 7 7 7 8 2 4 5 6 7 7 7 8 8 10 9 9 9 10 11 11 13 11 11 12 13
18 17 14 14 11 12 12 12 15 17 26 22 19 16 12 8 6 7 8 12 9 7 5 5 6 6 7 7 7 8 8 9 9 9 9 11 11 10 14 12 13 14 13
17 17 12 13 11 11 11 11 10 11 10 8 9 7 6 4 1 4 7 7 4 6 6 6 6 6 6 7 7 7 7 8 9 9 9 10 10 11 12 12 14 15 14
15 11 11 12 12 13 11 11 11 11 10 8 7 3 2 5 6 7 8 3 6 6 6 6 5 6 6 7 7 8 8 9 9 9 9 10 10 11 12 12 14 17 17
14 13 12 12 11 11 11 11 11 10 9 8 7 6 4 2 3 6 5 6 6 6 6 6 6 6 7 8 8 8 9 9 10 9 9 9 10 11 12 12 14 13 15
12 12 12 11 11 11 11 11 10 9 8 8 7 5 3 3 6 6 6 6 6 6 5 5 7 7 7 8 8 9 9 9 9 10 10 10 10 11 11 11 12 12 13
9 9 10 11 10 9 9 9 9 9 9 8 6 4 4 7 6 6 6 6 6 6 5 6 7 7 7 8 8 9 9 9 9 10 10 10 10 11 9 12 12 13 13
10 11 11 10 10 10 10 10 9 9 9 8 7 6 6 6 6 6 6 5 5 5 5 6 6 7 6 8 8 8 8 8 8 9 10 10 10 11 9 11 13 13 13
11 12 12 10 8 9 8 9 9 9 9 8 7 7 7 6 6 6 5 5 5 5 4 5 6 7 5 8 7 8 7 7 7 8 12 10 11 11 10 12 12 14 12
10 9 10 9 8 9 8 8 8 8 8 8 7 7 7 6 6 6 5 5 4 4 5 5 4 6 10 13 11 11 8 8 9 10 9 11 12 13 12 12 12 12 14
9 9 9 8 8 8 7 7 8 7 8 7 6 6 6 6 6 4 6 5 3 4 5 4 6 7 13 10 9 6 7 9 10 13 10 9 10 10 10 12 15 11 13
Wind_Direction
180 176 148 143 141 139 134 137 132 135 133 132 128 121 113 106 91 94 104 98 83 71 57 58 34 45 10 17 352 13 357 0 332 321 314 320 311 335 5 333 330 349 335
177 160 141 141 138 139 136 132 130 130 129 123 127 109 111 109 121 116 87 84 82 71 59 54 45 22 24 18 354 9 355 348 329 315 321 325 329 24 350 352 352 332 326
164 155 145 143 139 139 133 132 130 123 124 116 124 119 118 111 99 94 94 93 84 71 60 54 48 35 20 8 341 8 344 336 320 329 329 325 349 13 343 342 336 335 341
154 147 133 135 135 133 128 123 119 120 124 120 119 110 109 109 106 104 99 94 95 89 81 66 49 43 20 356 349 355 345 333 340 350 335 340 347 354 347 341 338 333 331
136 112 124 127 132 125 121 120 118 120 117 114 112 106 85 73 94 104 107 95 86 82 111 105 71 39 17 354 311 315 319 344 353 351 340 343 338 336 347 336 329 326 328
124 120 120 131 125 118 120 116 114 113 111 110 105 93 84 75 64 85 88 79 67 60 52 99 113 48 10 345 342 324 276 319 354 341 333 326 324 329 328 329 328 333 332
125 113 126 133 117 115 113 110 108 107 104 96 94 95 89 71 56 59 79 74 65 61 51 40 36 27 8 342 329 355 9 169 253 280 309 309 317 311 322 320 325 322 325
118 122 128 115 115 114 108 107 107 104 103 103 103 98 87 60 55 48 89 84 76 63 48 58 53 22 359 350 352 1 2 9 329 306 287 286 294 305 312 301 307 320 317
109 114 112 115 112 110 108 109 108 105 102 102 101 99 84 59 51 43 88 115 116 103 82 54 49 25 348 345 8 3 353 338 326 315 315 318 310 321 320 330 338 336 332
114 112 108 108 109 111 111 110 108 105 106 106 102 95 82 70 46 38 39 133 135 123 119 113 79 357 323 328 336 357 347 336 327 326 351 1 351 8 348 349 331 333 338
111 105 105 110 109 107 108 107 106 103 104 100 94 85 79 73 51 49 46 46 72 84 78 80 47 286 302 310 322 342 332 319 334 358 353 359 355 3 343 349 328 334 338
109 107 111 110 109 107 102 103 104 106 105 105 103 95 79 71 65 57 54 51 58 69 70 74 301 285 271 284 304 327 329 347 350 1 357 360 1 357 341 341 321 349 335
107 107 109 105 102 100 105 107 111 114 116 111 107 106 101 85 69 69 71 64 44 87 79 258 287 296 298 271 256 299 355 9 0 6 2 1 6 348 333 333 330 1 330
108 107 106 102 104 107 107 111 115 116 117 119 118 121 124 113 106 136 133 138 118 214 351 259 269 297 293 327 26 30 33 8 1 9 0 2 1 344 347 336 341 352 338
108 107 96 85 83 77 61 64 72 42 103 123 115 98 94 81 56 40 55 35 3 347 318 35 29 28 29 24 27 22 35 12 5 11 4 6 358 340 348 338 348 349 344
104 102 100 98 95 92 89 81 59 70 69 70 69 79 73 88 76 52 28 349 330 324 75 58 41 34 29 24 22 12 30 19 7 13 6 8 354 341 343 343 351 349 344
103 106 103 98 98 101 97 93 89 64 67 66 71 73 76 102 63 20 353 345 2 24 55 53 51 36 25 20 19 20 25 21 3 14 8 4 351 342 343 347 350 343 348
93 94 101 109 109 102 98 97 97 95 95 91 64 90 107 126 164 299 304 323 75 67 62 51 41 41 29 23 16 25 22 22 11 9 7 360 348 345 344 349 349 339 348
99 106 110 110 110 110 110 107 106 104 103 109 113 133 229 264 273 282 263 48 65 53 60 53 43 33 36 27 20 22 24 26 10 2 3 356 344 343 343 349 344 334 351
115 127 118 122 124 117 116 113 119 127 135 138 131 136 172 189 132 77 66 70 65 50 37 56 45 36 37 30 20 21 24 21 6 358 360 348 338 335 341 354 343 346 350
116 124 135 120 120 123 132 136 143 151 135 99 86 75 48 132 95 87 87 68 62 65 31 34 47 41 28 35 21 27 25 16 1 353 355 339 332 331 342 357 338 350 346
133 137 119 114 115 115 110 106 98 92 97 111 121 107 5 97 93 85 71 60 63 63 53 31 46 47 27 41 24 34 22 10 352 349 349 330 332 326 352 354 341 354 352
111 110 108 102 99 107 108 111 112 115 127 140 149 130 106 101 98 89 79 67 68 57 54 48 46 48 28 55 34 45 23 4 340 349 337 325 329 326 3 351 340 357 354
98 96 105 121 122 113 118 120 124 139 138 119 105 102 101 97 92 90 89 83 70 64 56 68 45 50 43 60 38 37 26 360 334 348 332 323 320 328 7 347 339 357 355
123 124 106 117 112 105 115 123 131 119 113 110 110 107 105 99 92 91 77 80 89 73 69 72 61 27 74 69 46 37 14 352 345 340 331 313 314 357 3 341 343 358 356
113 120 107 114 133 129 127 120 116 114 111 106 106 111 110 105 99 90 94 53 44 74 64 67 58 31 92 64 58 52 12 356 349 339 323 308 346 1 355 336 350 354 355